Location: Naloco
(16.5478°S, 37.1017°E)
Time: 02:56:43
(UTC+00:00)

CZ-2C R/B - Pass Details

Date: 13 August 2020
Orbit: 705 x 907 km, 98.1° (Epoch: 23 September)

Event Time Altitude Azimuth Distance (km) Brightness Sun altitude
Exits shadow 17:44:29 33° 306° (NW) 1,258 4.4 -34.3°
Drops below altitude 10° 17:47:28 10° 329° (NNW) 2,259 5.8 -35.0°
Sets 17:49:45 0° 335° (NNW) 3,152 6.5 -35.5°
